Tracking 27107 objects as of 22-Mar-2023
HD Live streaming from Space Station
objects crossing your sky now

STARLINK-4103

Track STARLINK-4103 now!
10-day predictions
STARLINK-4103 is classified as:


NORAD ID: 53141
Int'l Code: 2022-083K
Perigee: 545.8 km
Apogee: 547.9 km
Inclination: 53.2 °
Period: 95.4 minutes
Semi major axis: 6917 km
RCS: Unknown
Launch date: July 17, 2022
Source: United States (US)
Launch site: AIR FORCE EASTERN TEST RANGE (AFETR)
Your satellite tracking list
Your tracking list is empty




NASA's NSSDC Master Catalog

Two Line Element Set (TLE):
1 53141U 22083K   23080.09653570  .00016029  00000-0  10226-2 0  9998
2 53141  53.2180   3.0502 0001511  68.4624 291.6529 15.08850504 37485
Source of the keplerian elements: AFSPC